timestamp,surface_pressure_avg,surface_temp_avg,battery_voltage,lat,long
2020-06-03 00:09:01+00:00,268.4298,9.3,12.65,47.84626,-54.09684
2020-06-03 00:19:01+00:00,257.438,9.4,12.65,47.84626,-54.09684
2020-06-03 00:29:01+00:00,256.4581,9.38,12.65,47.84626,-54.09684
2020-06-03 00:39:01+00:00,245.7998,9.38,12.65,47.84626,-54.09684
2020-06-03 00:49:01+00:00,229.4014,9.4,12.65,47.84626,-54.09684
2020-06-03 00:59:01+00:00,224.5781,9.4,12.65,47.84626,-54.09684
2020-06-03 01:09:01+00:00,225.968,9.38,12.65,47.84626,-54.09684
2020-06-03 01:19:01+00:00,219.9265,9.36,12.57,47.84626,-54.09684
2020-06-03 01:29:01+00:00,210.9014,9.33,12.57,47.84626,-54.09684
2020-06-03 01:39:01+00:00,209.5232,9.3,12.57,47.84626,-54.09684
2020-06-03 01:49:01+00:00,211.0414,9.3,12.57,47.84626,-54.09684
2020-06-03 01:59:01+00:00,209.8015,9.3,12.57,47.84626,-54.09684
2020-06-03 02:09:01+00:00,209.3881,9.3,12.57,47.84626,-54.09684
2020-06-03 02:19:01+00:00,204.8064,9.3,12.57,47.84626,-54.09684
2020-06-03 02:29:01+00:00,199.9964,9.3,12.57,47.84626,-54.09684
2020-06-03 02:39:01+00:00,201.0198,9.25,12.57,47.84626,-54.09684
2020-06-03 02:49:01+00:00,202.2814,9.2,12.57,47.84626,-54.09684
2020-06-03 02:59:01+00:00,195.2398,9.2,12.57,47.84626,-54.09684
2020-06-03 03:09:01+00:00,196.8998,9.2,12.57,47.84626,-54.09684
2020-06-03 03:19:01+00:00,200.0598,9.2,12.57,47.84626,-54.09684
2020-06-03 03:29:01+00:00,189.4498,9.18,12.57,47.84626,-54.09684
2020-06-03 03:39:01+00:00,187.0815,9.1,12.57,47.84626,-54.09684
2020-06-03 03:49:01+00:00,202.1914,9.1,12.57,47.84626,-54.09684
2020-06-03 03:59:01+00:00,202.8081,9.0,12.57,47.84626,-54.09684
2020-06-03 04:09:01+00:00,198.0914,8.99,12.57,47.84626,-54.09684
2020-06-03 04:19:01+00:00,196.9748,8.99,12.57,47.84626,-54.09684
2020-06-03 04:29:01+00:00,197.6281,9.0,12.57,47.84626,-54.09684
2020-06-03 04:39:01+00:00,203.5015,8.9,12.57,47.84626,-54.09684
2020-06-03 04:49:01+00:00,207.2881,8.89,12.57,47.84626,-54.09684
2020-06-03 04:59:01+00:00,209.0481,8.9,12.57,47.84626,-54.09684
2020-06-03 05:09:01+00:00,210.8864,8.9,12.57,47.84626,-54.09684
2020-06-03 05:19:01+00:00,211.4114,8.9,12.57,47.84626,-54.09684
2020-06-03 05:29:01+00:00,211.6348,8.96,12.57,47.84626,-54.09684
2020-06-03 05:39:01+00:00,227.8998,8.9,12.57,47.84626,-54.09684
2020-06-03 05:49:01+00:00,243.3698,8.89,12.57,47.84626,-54.09684
2020-06-03 05:59:01+00:00,238.9031,8.99,12.57,47.84626,-54.09684
2020-06-03 06:09:01+00:00,245.8047,8.96,12.57,47.84626,-54.09684
2020-06-03 06:19:01+00:00,260.853,8.9,12.57,47.84626,-54.09684
2020-06-03 06:29:01+00:00,262.9497,9.0,12.57,47.84626,-54.09684
2020-06-03 06:39:01+00:00,263.0464,8.99,12.57,47.84626,-54.09684
2020-06-03 06:49:01+00:00,272.0247,8.7,12.57,47.84626,-54.09684
2020-06-03 06:59:01+00:00,280.2064,8.4,12.57,47.84626,-54.09684
2020-06-03 07:09:01+00:00,279.363,8.41,12.57,47.84626,-54.09684
2020-06-03 07:19:01+00:00,290.0697,8.37,12.57,47.84626,-54.09684
2020-06-03 07:29:01+00:00,308.898,8.11,12.57,47.84626,-54.09684
2020-06-03 07:39:01+00:00,312.3096,8.49,12.57,47.84626,-54.09684
2020-06-03 07:49:01+00:00,308.098,8.38,12.57,47.84626,-54.09684
2020-06-03 07:59:01+00:00,320.6497,8.18,12.57,47.84626,-54.09684
2020-06-03 08:09:01+00:00,338.4729,8.2,12.57,47.84626,-54.09684
2020-06-03 08:19:01+00:00,336.8196,8.34,12.57,47.84626,-54.09684
2020-06-03 08:29:01+00:00,334.1613,8.51,12.57,47.84626,-54.09684
2020-06-03 08:39:01+00:00,341.9113,8.1,12.57,47.84626,-54.09684
2020-06-03 08:49:01+00:00,339.1213,8.13,12.57,47.84626,-54.09684
2020-06-03 08:59:01+00:00,333.7429,8.29,12.57,47.84626,-54.09684
2020-06-03 09:09:01+00:00,344.7014,8.3,12.57,47.84626,-54.09684
2020-06-03 09:19:01+00:00,354.1463,8.2,12.57,47.84626,-54.09684
2020-06-03 09:29:01+00:00,341.9296,8.25,12.57,47.84626,-54.09684
2020-06-03 09:39:01+00:00,345.0163,8.3,12.57,47.84626,-54.09684
2020-06-03 09:49:01+00:00,353.3563,8.3,12.57,47.84626,-54.09684
2020-06-03 09:59:01+00:00,351.158,8.34,12.57,47.84626,-54.09684
2020-06-03 10:09:01+00:00,341.1946,8.43,12.57,47.84626,-54.09684
2020-06-03 10:19:01+00:00,342.3463,8.68,12.65,47.84626,-54.09684
2020-06-03 10:29:01+00:00,344.3297,8.4,12.65,47.84626,-54.09684
2020-06-03 10:39:01+00:00,338.3180000000001,8.4,12.65,47.84626,-54.09684
2020-06-03 10:49:01+00:00,332.8279,8.59,12.65,47.84626,-54.09684
2020-06-03 10:59:01+00:00,331.043,8.7,12.65,47.84626,-54.09684
2020-06-03 11:09:01+00:00,325.83799999999997,8.5,12.65,47.84626,-54.09684
2020-06-03 11:19:01+00:00,320.813,8.64,12.65,47.84626,-54.09684
2020-06-03 11:29:01+00:00,317.803,8.7,12.65,47.84626,-54.09684
2020-06-03 11:39:01+00:00,311.7613,8.7,12.65,47.84626,-54.09684
2020-06-03 11:49:01+00:00,305.2347,8.6,12.65,47.84626,-54.09684
2020-06-03 11:59:01+00:00,302.6864,8.62,12.65,47.84626,-54.09684
2020-06-03 12:09:01+00:00,291.9464,8.7,12.65,47.84626,-54.09684
2020-06-03 12:19:01+00:00,276.8264,8.7,12.81,47.84626,-54.09684
2020-06-03 12:29:01+00:00,268.0763,8.71,12.81,47.84626,-54.09684
2020-06-03 12:39:01+00:00,260.7681,8.73,12.81,47.84626,-54.09684
2020-06-03 12:49:01+00:00,249.1581,8.8,12.81,47.84626,-54.09684
2020-06-03 12:59:01+00:00,240.4347,8.76,12.81,47.84626,-54.09684
2020-06-03 13:09:01+00:00,238.1764,8.76,12.81,47.84626,-54.09684
2020-06-03 13:19:01+00:00,230.6464,8.85,13.13,47.84626,-54.09684
2020-06-03 13:29:01+00:00,217.6747,9.04,13.13,47.84626,-54.09684
2020-06-03 13:39:01+00:00,213.7498,9.1,13.13,47.84626,-54.09684
2020-06-03 13:49:01+00:00,214.5865,9.17,13.13,47.84626,-54.09684
2020-06-03 13:59:01+00:00,203.8797,9.2,13.13,47.84626,-54.09684
2020-06-03 14:09:01+00:00,194.4398,9.1,13.13,47.84626,-54.09684
2020-06-03 14:19:01+00:00,195.4381,9.1,13.29,47.84626,-54.09684
2020-06-03 14:29:01+00:00,194.0332,9.06,13.29,47.84626,-54.09684
2020-06-03 14:39:01+00:00,188.5015,9.1,13.29,47.84626,-54.09684
2020-06-03 14:49:01+00:00,185.9581,9.05,13.29,47.84626,-54.09684
2020-06-03 14:59:01+00:00,186.7831,9.05,13.29,47.84626,-54.09684
2020-06-03 15:09:01+00:00,184.0464,9.07,13.29,47.84626,-54.09684
2020-06-03 15:19:01+00:00,180.4698,9.0,13.76,47.84626,-54.09684
2020-06-03 15:29:01+00:00,180.4365,9.1,13.76,47.84626,-54.09684
2020-06-03 15:39:01+00:00,182.7181,9.1,13.76,47.84626,-54.09684
2020-06-03 15:49:01+00:00,182.7432,9.04,13.76,47.84626,-54.09684
2020-06-03 15:59:01+00:00,177.8765,9.14,13.76,47.84626,-54.09684
2020-06-03 16:09:01+00:00,181.0248,9.19,13.76,47.84626,-54.09684
2020-06-03 16:19:01+00:00,187.7198,9.1,14.24,47.84626,-54.09684
2020-06-03 16:29:01+00:00,183.1831,9.23,14.24,47.84626,-54.09684
2020-06-03 16:39:01+00:00,184.0664,9.3,14.24,47.84626,-54.09684
2020-06-03 16:49:01+00:00,192.8298,9.18,14.24,47.84626,-54.09684
2020-06-03 16:59:01+00:00,193.7131,9.1,14.24,47.84626,-54.09684
2020-06-03 17:09:01+00:00,192.6814,9.23,14.24,47.84626,-54.09684
2020-06-03 17:19:01+00:00,199.4631,9.3,14.16,47.84626,-54.09684
2020-06-03 17:29:01+00:00,211.8915,9.3,14.16,47.84626,-54.09684
2020-06-03 17:39:01+00:00,220.5698,9.3,14.16,47.84626,-54.09684
2020-06-03 17:49:01+00:00,226.0865,9.4,14.16,47.84626,-54.09684
2020-06-03 17:59:01+00:00,230.0364,9.4,14.16,47.84626,-54.09684
2020-06-03 18:09:01+00:00,237.7598,9.4,14.16,47.84626,-54.09684
2020-06-03 18:19:01+00:00,246.5048,9.4,14.16,47.84626,-54.09684
2020-06-03 18:29:01+00:00,251.7831,9.48,14.16,47.84626,-54.09684
2020-06-03 18:39:01+00:00,257.2647,9.5,14.16,47.84626,-54.09684
2020-06-03 18:49:01+00:00,267.8264,9.5,14.16,47.84626,-54.09684
2020-06-03 18:59:01+00:00,270.1897,9.57,14.16,47.84626,-54.09684
2020-06-03 19:09:01+00:00,273.1431,9.64,14.16,47.84626,-54.09684
2020-06-03 19:19:01+00:00,281.3197,9.68,14.08,47.84626,-54.09684
2020-06-03 19:29:01+00:00,298.0029,9.7,14.08,47.84626,-54.09684
2020-06-03 19:39:01+00:00,304.0197,9.7,14.08,47.84626,-54.09684
2020-06-03 19:49:01+00:00,307.1163,9.17,14.08,47.84626,-54.09684
2020-06-03 19:59:01+00:00,315.4431,8.7,14.08,47.84626,-54.09684
2020-06-03 20:09:01+00:00,336.9196,8.76,14.08,47.84626,-54.09684
2020-06-03 20:19:01+00:00,336.5813,8.7,14.0,47.84626,-54.09684
2020-06-03 20:29:01+00:00,333.2247,8.7,14.0,47.84626,-54.09684
2020-06-03 20:39:01+00:00,340.4514,8.58,14.0,47.84626,-54.09684
2020-06-03 20:49:01+00:00,357.8262,8.52,14.0,47.84626,-54.09684
2020-06-03 20:59:01+00:00,356.6497,8.68,14.0,47.84626,-54.09684
2020-06-03 21:09:01+00:00,357.4463,8.7,14.0,47.84626,-54.09684
2020-06-03 21:19:01+00:00,367.5496,8.72,13.92,47.84626,-54.09684
2020-06-03 21:29:01+00:00,371.8412,8.8,13.92,47.84626,-54.09684
2020-06-03 21:39:01+00:00,367.1646,8.7,13.92,47.84626,-54.09684
2020-06-03 21:49:01+00:00,371.3147,8.5,13.92,47.84626,-54.09684
2020-06-03 21:59:01+00:00,379.3463,8.6,13.92,47.84626,-54.09684
2020-06-03 22:09:01+00:00,375.0329,8.7,13.92,47.84626,-54.09684
2020-06-03 22:19:01+00:00,372.0279,8.4,13.68,47.84626,-54.09684
2020-06-03 22:29:01+00:00,377.2213,8.32,13.68,47.84626,-54.09684
2020-06-03 22:39:01+00:00,369.2662,8.69,13.68,47.84626,-54.09684
2020-06-03 22:49:01+00:00,363.2896,8.78,13.68,47.84626,-54.09684
2020-06-03 22:59:01+00:00,361.278,8.56,13.68,47.84626,-54.09684
2020-06-03 23:09:01+00:00,352.7163,9.3,13.68,47.84626,-54.09684
2020-06-03 23:19:01+00:00,346.158,9.47,13.29,47.84626,-54.09684
2020-06-03 23:29:01+00:00,349.1196,9.27,13.29,47.84626,-54.09684
2020-06-03 23:39:01+00:00,345.4679,9.6,13.29,47.84626,-54.09684
2020-06-03 23:49:01+00:00,335.2697,9.7,13.29,47.84626,-54.09684
2020-06-03 23:59:01+00:00,326.178,9.55,13.29,47.84626,-54.09684
